TimeGMT,TemperatureF,Dew PointF,Humidity,Sea Level PressureIn,VisibilityMPH,Wind Direction,Wind SpeedMPH,Gust SpeedMPH,PrecipitationIn,Events,Conditions,WindDirDegrees,DateUTC
12:00 AM,45,39,72,29.90,,West,24.6,,,,,280,2013-02-04 00:00:00
6:00 AM,40,36,79,29.93,16,West,22.4,,,Rain,Light Rain Showers,260,2013-02-04 06:00:00
6:00 AM,41.0,35.6,81,29.89,6.2,West,21.9,34.5,N/A,,Scattered Clouds,260,2013-02-04 06:00:00
6:30 AM,41.0,35.6,81,29.89,6.2,West,26.5,40.3,N/A,,Mostly Cloudy,270,2013-02-04 06:30:00
7:00 AM,41.0,32.0,70,29.89,6.2,West,24.2,-,N/A,,Mostly Cloudy,270,2013-02-04 07:00:00
7:30 AM,41.0,35.6,81,29.89,6.2,West,23.0,-,N/A,Rain,Light Rain Showers,260,2013-02-04 07:30:00
8:00 AM,41.0,35.6,81,29.92,3.1,West,18.4,39.1,N/A,Rain,Light Rain Showers,280,2013-02-04 08:00:00
8:30 AM,39.2,35.6,87,29.92,5.6,West,24.2,35.7,N/A,Rain,Light Rain Showers,270,2013-02-04 08:30:00
9:00 AM,39.2,33.8,81,29.92,6.2,West,20.7,32.2,N/A,,Partly Cloudy,270,2013-02-04 09:00:00
9:30 AM,41.0,32.0,70,29.89,6.2,West,20.7,32.2,N/A,,Mostly Cloudy,270,2013-02-04 09:30:00
11:00 AM,41.0,35.6,81,29.89,5.6,West,27.6,-,N/A,Rain,Light Rain Showers,260,2013-02-04 11:00:00
11:30 AM,41.0,35.6,81,29.89,6.2,West,25.3,36.8,N/A,,Scattered Clouds,270,2013-02-04 11:30:00
12:00 PM,42,35,68,29.90,19,West,20.1,,,Rain,Light Rain Showers,280,2013-02-04 12:00:00
12:00 PM,41.0,35.6,81,29.86,6.2,West,20.7,32.2,N/A,,Partly Cloudy,280,2013-02-04 12:00:00
12:30 PM,41.0,35.6,81,29.86,6.2,West,29.9,-,N/A,,Partly Cloudy,260,2013-02-04 12:30:00
1:00 PM,41.0,33.8,76,29.86,6.2,West,27.6,42.6,N/A,,Scattered Clouds,260,2013-02-04 13:00:00
1:30 PM,42.8,35.6,76,29.83,5.6,West,31.1,44.9,N/A,Rain,Light Rain Showers,260,2013-02-04 13:30:00
2:00 PM,41.0,33.8,76,29.83,6.2,West,29.9,43.7,N/A,,Mostly Cloudy,270,2013-02-04 14:00:00
2:30 PM,41.0,35.6,81,29.80,6.2,West,29.9,42.6,N/A,,Scattered Clouds,270,2013-02-04 14:30:00
3:00 PM,41.0,33.8,76,29.80,6.2,West,27.6,43.7,N/A,,Mostly Cloudy,270,2013-02-04 15:00:00
3:30 PM,41.0,33.8,76,29.77,6.2,West,29.9,42.6,N/A,,Scattered Clouds,260,2013-02-04 15:30:00
4:00 PM,39.2,33.8,81,29.77,6.2,West,26.5,-,N/A,,Scattered Clouds,280,2013-02-04 16:00:00
4:30 PM,41.0,32.0,70,29.77,6.2,West,25.3,39.1,N/A,,Mostly Cloudy,270,2013-02-04 16:30:00
5:00 PM,39.2,33.8,81,29.74,5.6,West,21.9,35.7,N/A,Rain,Light Rain Showers,280,2013-02-04 17:00:00
6:00 PM,36,33,86,29.78,5,West,26.8,,,Hail,Light Small Hail Showers,270,2013-02-04 18:00:00
6:00 PM,35.6,33.8,93,29.74,5.0,West,26.5,48.3,N/A,Rain,Light Rain Showers,270,2013-02-04 18:00:00
6:30 PM,35.6,32.0,87,29.71,5.6,WNW,24.2,39.1,N/A,Rain,Light Rain Showers,290,2013-02-04 18:30:00
7:00 PM,37.4,30.2,75,29.71,6.2,West,29.9,44.9,N/A,,Mostly Cloudy,280,2013-02-04 19:00:00
7:30 PM,35.6,30.2,81,29.71,6.2,West,25.3,42.6,N/A,,Mostly Cloudy,270,2013-02-04 19:30:00